Regional Weather Roundup
Issued by NWS

Home | Current Version | Previous Version | Text Only | Print | Product List | Glossary Off
Versions: 1 2 3 4 5 6 7 8 9 10 11 12 13 14 15 16 17 18 19 20 21 22 23 24 25 26 27 28 29 30 31 32 33 34 35 36 37 38 39 40 41 42 43 44 45 46 47 48 49 50

885
ASUS43 KOAX 192302
RWRNE

WEATHER ROUNDUP FOR NEBRASKA
NATIONAL WEATHER SERVICE OMAHA NE
500 PM CST FRI JAN 19 2018

NOTES: SATELLITE DATA IS BEING USED TO AUGMENT CLOUD COVER ABOVE
       12000 FEET.
       "FAIR" INDICATES FEW OR NO CLOUDS BELOW 12,000 FEET WITH NO
       SIGNIFICANT WEATHER AND/OR OBSTRUCTIONS TO VISIBILITY.


NEZ001>004-019>022-054>056-200000-
NEBRASKA PANHANDLE

CITY           SKY/WX    TMP DP  RH WIND       PRES   REMARKS
SCOTTSBLUFF    CLOUDY    40  32  73 CALM      29.67R
ALLIANCE       CLOUDY    39  32  76 E5        29.67R
CHADRON        CLOUDY    43  32  65 N7        29.70R
GORDON         FAIR      40  32  74 NE3       29.69R
KIMBALL        CLOUDY    50  26  39 SW3       29.70S
SIDNEY         CLOUDY    44  28  53 SW9       29.69R
$$

NEZ057>060-069>072-079>082-200000-
SOUTHWEST NEBRASKA

CITY           SKY/WX    TMP DP  RH WIND       PRES   REMARKS
NORTH PLATTE   CLOUDY    43  33  68 NW5       29.68R
IMPERIAL       CLOUDY    53  31  42 CALM      29.68R
LEXINGTON      CLOUDY    46  37  71 CALM      29.67R
MCCOOK         CLOUDY    54  27  35 CALM      29.66R
OGALLALA       CLOUDY    44  32  61 CALM      29.68R
$$

NEZ005>010-023>029-035>040-094-200000-
NORTH CENTRAL NEBRASKA

CITY           SKY/WX    TMP DP  RH WIND       PRES   REMARKS
VALENTINE      CLOUDY    44  32  62 NW7       29.69R
AINSWORTH      CLOUDY    40  33  76 N8        29.68R WCI  35
BROKEN BOW     CLOUDY    49  33  54 N8        29.67R
O`NEILL        CLOUDY    43  36  76 NW8       29.67R
ORD            CLOUDY    49  32  52 N6        29.66R
THEDFORD       CLOUDY    45  34  64 N6        29.69R
$$

NEZ041-046>049-061>064-073>077-083>087-200000-
SOUTH CENTRAL NEBRASKA

CITY           SKY/WX    TMP DP  RH WIND       PRES   REMARKS
GRAND ISLAND   CLOUDY    49  32  52 S8        29.67R
AURORA         CLOUDY    48  26  42 S13       29.65F
HASTINGS       CLOUDY    49  24  37 SW6       29.68R
HEBRON         CLOUDY    44  30  58 CALM      29.69S
HOLDREGE       CLOUDY    50  32  50 S7        29.66S
KEARNEY        CLOUDY    42  34  73 S7        29.66R
YORK           CLOUDY    46  32  57 S10       29.66S
$$

NEZ011>018-030>034-042>045-200000-
NORTHEAST NEBRASKA

CITY           SKY/WX    TMP DP  RH WIND       PRES   REMARKS
NORFOLK        CLOUDY    45  35  68 SW6       29.62R
ALBION         PTCLDY    49  36  59 CALM      29.65R
BLAIR          CLOUDY    44  31  60 S8        29.66R
COLUMBUS       CLOUDY    49  30  48 SW5       29.67R
FREMONT        CLOUDY    48  27  43 SW6       29.67R
TEKAMAH        CLOUDY    46  30  53 S12       29.64R
WAYNE          CLOUDY    48  34  58 SW3       29.63R
$$

NEZ050>053-065>068-078-088>093-200000-
SOUTHEAST NEBRASKA

CITY           SKY/WX    TMP DP  RH WIND       PRES   REMARKS
LINCOLN        CLOUDY    44  29  55 S15       29.69S
OMAHA EPPLEY   CLOUDY    42  30  62 S14       29.67S
BEATRICE       CLOUDY    43  31  63 S9        29.71R
FALLS CITY     CLOUDY    43  29  57 S9        29.72R
NEBRASKA CITY  CLOUDY    41  32  71 SW7       29.71R
PLATTSMOUTH    CLOUDY    41  30  64 S12       29.70S
$$

NEZ044-045-051>053-067-200000-
OMAHA AREA

CITY           SKY/WX    TMP DP  RH WIND       PRES   REMARKS
OMAHA EPPLEY   CLOUDY    42  30  62 S14       29.67S
BLAIR          CLOUDY    44  31  60 S8        29.66R
FREMONT        CLOUDY    48  27  43 SW6       29.67R
MILLARD        CLOUDY    44  31  61 S3        29.68R
OFFUTT AFB     CLOUDY    39  30  68 SE13      29.67F WCI  32
PLATTSMOUTH    CLOUDY    41  30  64 S12       29.70S
WAHOO          FAIR      45  28  51 S12       29.66R
$$




USA.gov is the U.S. government's official web portal to all federal, state and local government web resources and services.